TimeEDT,TemperatureF,Dew PointF,Humidity,Sea Level PressureIn,VisibilityMPH,Wind Direction,Wind SpeedMPH,Gust SpeedMPH,PrecipitationIn,Events,Conditions,WindDirDegrees,DateUTC
12:54 AM,62.1,57.0,84,29.75,10.0,Calm,Calm,-,N/A,,Clear,0,2013-05-16 04:54:00
1:54 AM,61.0,55.9,83,29.76,10.0,Calm,Calm,-,N/A,,Partly Cloudy,0,2013-05-16 05:54:00
2:54 AM,57.9,55.0,90,29.75,8.0,NNW,3.5,-,N/A,,Partly Cloudy,330,2013-05-16 06:54:00
3:54 AM,57.0,55.0,93,29.74,5.0,Calm,Calm,-,N/A,,Clear,0,2013-05-16 07:54:00
4:54 AM,57.0,55.0,93,29.74,5.0,Calm,Calm,-,N/A,,Clear,0,2013-05-16 08:54:00
5:54 AM,57.0,55.0,93,29.78,4.0,Calm,Calm,-,N/A,,Partly Cloudy,0,2013-05-16 09:54:00
6:54 AM,59.0,55.9,90,29.81,5.0,Calm,Calm,-,N/A,,Mostly Cloudy,0,2013-05-16 10:54:00
7:54 AM,59.0,57.0,93,29.85,2.5,SSE,4.6,-,0.02,Rain,Rain,150,2013-05-16 11:54:00
8:20 AM,60.8,57.2,88,29.81,0.8,SE,4.6,-,0.02,Rain,Light Rain,130,2013-05-16 12:20:00
8:34 AM,60.8,59.0,94,29.82,1.8,Calm,Calm,-,0.03,Rain,Light Rain,0,2013-05-16 12:34:00
8:54 AM,61.0,59.0,93,29.84,1.8,Calm,Calm,-,0.03,Rain,Light Rain,0,2013-05-16 12:54:00
9:03 AM,62.6,60.8,94,29.83,2.0,Calm,Calm,-,0.00,Rain,Light Rain,0,2013-05-16 13:03:00
9:27 AM,62.6,60.8,94,29.82,1.5,Calm,Calm,-,0.00,,Mostly Cloudy,0,2013-05-16 13:27:00
9:42 AM,64.4,60.8,88,29.80,2.0,Calm,Calm,-,0.00,,Partly Cloudy,0,2013-05-16 13:42:00
9:54 AM,64.9,62.1,90,29.81,2.0,Calm,Calm,-,0.00,,Clear,0,2013-05-16 13:54:00
10:52 AM,69.8,62.6,78,29.81,5.0,SSW,3.5,-,N/A,,Haze,210,2013-05-16 14:52:00
10:54 AM,70.0,63.0,78,29.82,5.0,South,3.5,-,N/A,,Haze,190,2013-05-16 14:54:00
11:54 AM,75.0,63.0,66,29.81,6.0,WSW,10.4,-,N/A,,Haze,240,2013-05-16 15:54:00
12:54 PM,78.1,64.0,62,29.80,10.0,West,6.9,-,N/A,,Partly Cloudy,270,2013-05-16 16:54:00
1:54 PM,81.0,62.1,52,29.79,10.0,West,11.5,-,N/A,,Scattered Clouds,260,2013-05-16 17:54:00
2:54 PM,82.9,59.0,44,29.77,10.0,West,13.8,20.7,N/A,,Scattered Clouds,260,2013-05-16 18:54:00
3:54 PM,82.9,55.9,39,29.77,10.0,WNW,15.0,20.7,N/A,,Partly Cloudy,300,2013-05-16 19:54:00
4:54 PM,82.0,55.0,39,29.76,10.0,WNW,8.1,-,N/A,,Scattered Clouds,290,2013-05-16 20:54:00
6:54 PM,81.0,48.9,33,29.78,10.0,West,8.1,-,N/A,,Partly Cloudy,270,2013-05-16 22:54:00
7:54 PM,78.1,48.0,35,29.79,10.0,WSW,6.9,-,N/A,,Partly Cloudy,250,2013-05-16 23:54:00
8:54 PM,73.0,48.9,42,29.82,10.0,West,5.8,-,N/A,,Clear,280,2013-05-17 00:54:00
9:54 PM,70.0,48.0,46,29.86,10.0,WNW,4.6,-,N/A,,Clear,290,2013-05-17 01:54:00
10:54 PM,64.9,48.9,56,29.87,10.0,West,4.6,-,N/A,,Clear,280,2013-05-17 02:54:00
11:54 PM,64.9,46.9,52,29.90,10.0,West,5.8,-,N/A,,Clear,270,2013-05-17 03:54:00